TimeCDT,TemperatureF,Dew PointF,Humidity,Sea Level PressureIn,VisibilityMPH,Wind Direction,Wind SpeedMPH,Gust SpeedMPH,PrecipitationIn,Events,Conditions,WindDirDegrees,DateUTC
12:10 AM,35.6,32.0,87,29.80,7.0,Calm,Calm,-,N/A,,Clear,0,2012-10-21 05:10:00
12:30 AM,35.6,32.0,87,29.81,7.0,Calm,Calm,-,N/A,,Clear,0,2012-10-21 05:30:00
12:50 AM,35.6,32.0,87,29.81,3.0,Calm,Calm,-,N/A,,Haze,0,2012-10-21 05:50:00
1:10 AM,33.8,30.2,87,29.81,1.0,Calm,Calm,-,N/A,,Haze,0,2012-10-21 06:10:00
1:30 AM,33.8,32.0,93,29.81,5.0,Calm,Calm,-,N/A,,Mostly Cloudy,0,2012-10-21 06:30:00
1:50 AM,35.6,32.0,87,29.81,4.0,Calm,Calm,-,N/A,,Mostly Cloudy,0,2012-10-21 06:50:00
2:10 AM,33.8,30.2,87,29.82,3.0,Calm,Calm,-,N/A,,Haze,0,2012-10-21 07:10:00
2:30 AM,35.6,32.0,87,29.82,4.0,Calm,Calm,-,N/A,,Mostly Cloudy,0,2012-10-21 07:30:00
2:50 AM,33.8,32.0,93,29.82,4.0,Calm,Calm,-,N/A,,Clear,0,2012-10-21 07:50:00
3:10 AM,35.6,32.0,87,29.82,3.0,Calm,Calm,-,N/A,,Haze,0,2012-10-21 08:10:00
3:30 AM,35.6,32.0,87,29.82,4.0,Calm,Calm,-,N/A,,Haze,0,2012-10-21 08:30:00
3:50 AM,35.6,32.0,87,29.82,3.0,Calm,Calm,-,N/A,,Clear,0,2012-10-21 08:50:00
4:10 AM,35.6,32.0,87,29.82,2.0,Calm,Calm,-,N/A,,Haze,0,2012-10-21 09:10:00
4:30 AM,35.6,32.0,87,29.82,3.0,Calm,Calm,-,N/A,,Haze,0,2012-10-21 09:30:00
5:10 AM,37.4,33.8,87,29.82,2.5,Calm,Calm,-,N/A,,Haze,0,2012-10-21 10:10:00
5:50 AM,37.4,33.8,87,29.83,0.5,Calm,Calm,-,N/A,,Haze,0,2012-10-21 10:50:00
6:10 AM,35.6,32.0,87,29.83,1.5,Calm,Calm,-,N/A,,Haze,0,2012-10-21 11:10:00
6:30 AM,35.6,32.0,87,29.82,0.5,Calm,Calm,-,N/A,,Haze,0,2012-10-21 11:30:00
6:50 AM,35.6,32.0,87,29.82,0.5,Calm,Calm,-,N/A,Fog,Fog,0,2012-10-21 11:50:00
7:10 AM,35.6,32.0,87,29.83,0.5,Calm,Calm,-,N/A,Fog,Fog,0,2012-10-21 12:10:00
7:30 AM,35.6,32.0,87,29.83,1.5,Calm,Calm,-,N/A,,Mist,0,2012-10-21 12:30:00
7:50 AM,35.6,32.0,87,29.82,1.2,Calm,Calm,-,N/A,,Mist,0,2012-10-21 12:50:00
8:30 AM,39.2,35.6,87,29.82,3.0,Calm,Calm,-,N/A,,Clear,0,2012-10-21 13:30:00
8:50 AM,41.0,35.6,81,29.83,4.0,Calm,Calm,-,N/A,,Haze,0,2012-10-21 13:50:00
9:10 AM,41.0,35.6,81,29.83,4.0,Calm,Calm,-,N/A,,Haze,0,2012-10-21 14:10:00
9:30 AM,41.0,37.4,87,29.83,5.0,Calm,Calm,-,N/A,,Scattered Clouds,0,2012-10-21 14:30:00
9:50 AM,42.8,37.4,81,29.84,7.0,Calm,Calm,-,N/A,,Scattered Clouds,0,2012-10-21 14:50:00
10:10 AM,44.6,37.4,76,29.84,10.0,Calm,Calm,-,N/A,,Clear,0,2012-10-21 15:10:00
10:30 AM,46.4,37.4,71,29.84,10.0,Calm,Calm,-,N/A,,Clear,0,2012-10-21 15:30:00
10:50 AM,50.0,37.4,62,29.84,10.0,Calm,Calm,-,N/A,,Clear,0,2012-10-21 15:50:00
11:10 AM,51.8,37.4,58,29.84,10.0,Calm,Calm,-,N/A,,Clear,0,2012-10-21 16:10:00
11:30 AM,53.6,37.4,54,29.84,10.0,Calm,Calm,-,N/A,,Clear,0,2012-10-21 16:30:00
12:10 PM,55.4,35.6,47,29.83,10.0,Calm,Calm,-,N/A,,Clear,0,2012-10-21 17:10:00
12:30 PM,59.0,35.6,42,29.82,10.0,Calm,Calm,-,N/A,,Clear,0,2012-10-21 17:30:00
12:50 PM,60.8,32.0,34,29.82,10.0,SSE,6.9,-,N/A,,Clear,150,2012-10-21 17:50:00
1:10 PM,62.6,32.0,32,29.81,10.0,SE,9.2,-,N/A,,Clear,140,2012-10-21 18:10:00
1:30 PM,62.6,28.4,27,29.80,10.0,SE,5.8,-,N/A,,Clear,130,2012-10-21 18:30:00
1:50 PM,62.6,26.6,26,29.79,10.0,Calm,Calm,-,N/A,,Clear,0,2012-10-21 18:50:00
2:10 PM,62.6,26.6,26,29.79,10.0,ESE,6.9,-,N/A,,Clear,120,2012-10-21 19:10:00
2:30 PM,62.6,26.6,26,29.79,10.0,SE,3.5,-,N/A,,Clear,130,2012-10-21 19:30:00
2:50 PM,62.6,28.4,27,29.79,10.0,SE,3.5,-,N/A,,Clear,130,2012-10-21 19:50:00
3:10 PM,62.6,26.6,26,29.79,10.0,SE,5.8,-,N/A,,Clear,130,2012-10-21 20:10:00
3:30 PM,62.6,28.4,27,29.79,10.0,ESE,6.9,-,N/A,,Clear,120,2012-10-21 20:30:00
3:50 PM,62.6,30.2,30,29.79,10.0,ESE,4.6,-,N/A,,Mostly Cloudy,120,2012-10-21 20:50:00
4:10 PM,62.6,30.2,30,29.79,10.0,Calm,Calm,-,N/A,,Overcast,0,2012-10-21 21:10:00
4:32 PM,60.8,26.6,27,29.81,10.0,Calm,Calm,-,N/A,,Overcast,0,2012-10-21 21:32:00
4:50 PM,60.8,28.4,29,29.81,10.0,Calm,Calm,-,N/A,,Overcast,0,2012-10-21 21:50:00
5:10 PM,57.2,33.8,41,29.82,10.0,Calm,Calm,-,N/A,,Overcast,0,2012-10-21 22:10:00
5:30 PM,55.4,35.6,47,29.82,10.0,Calm,Calm,-,N/A,,Overcast,0,2012-10-21 22:30:00
5:50 PM,53.6,35.6,51,29.84,10.0,Calm,Calm,-,N/A,,Overcast,0,2012-10-21 22:50:00
6:10 PM,53.6,35.6,51,29.85,10.0,Calm,Calm,-,N/A,,Overcast,0,2012-10-21 23:10:00
6:30 PM,51.8,35.6,54,29.85,10.0,Calm,Calm,-,N/A,,Overcast,0,2012-10-21 23:30:00
6:50 PM,51.8,35.6,54,29.86,10.0,Calm,Calm,-,N/A,,Mostly Cloudy,0,2012-10-21 23:50:00
7:10 PM,50.0,35.6,58,29.86,10.0,Calm,Calm,-,N/A,,Mostly Cloudy,0,2012-10-22 00:10:00
7:30 PM,50.0,35.6,58,29.88,10.0,Calm,Calm,-,N/A,,Overcast,0,2012-10-22 00:30:00
7:50 PM,50.0,35.6,58,29.89,10.0,NE,3.5,-,N/A,,Overcast,50,2012-10-22 00:50:00
8:10 PM,48.2,35.6,62,29.89,10.0,Calm,Calm,-,N/A,,Overcast,0,2012-10-22 01:10:00
8:30 PM,48.2,35.6,62,29.90,10.0,Calm,Calm,-,N/A,,Overcast,0,2012-10-22 01:30:00
8:50 PM,46.4,35.6,66,29.90,10.0,Calm,Calm,-,N/A,,Overcast,0,2012-10-22 01:50:00
9:10 PM,46.4,35.6,66,29.91,10.0,Calm,Calm,-,N/A,,Overcast,0,2012-10-22 02:10:00
9:30 PM,46.4,35.6,66,29.92,10.0,Calm,Calm,-,N/A,,Overcast,0,2012-10-22 02:30:00
9:50 PM,46.4,35.6,66,29.93,10.0,Calm,Calm,-,N/A,,Overcast,0,2012-10-22 02:50:00
10:10 PM,46.4,35.6,66,29.92,10.0,Calm,Calm,-,N/A,,Scattered Clouds,0,2012-10-22 03:10:00
10:30 PM,46.4,35.6,66,29.93,10.0,Calm,Calm,-,N/A,,Clear,0,2012-10-22 03:30:00
10:50 PM,44.6,35.6,71,29.92,10.0,Calm,Calm,-,N/A,,Clear,0,2012-10-22 03:50:00
11:30 PM,44.6,35.6,71,29.92,10.0,Calm,Calm,-,N/A,,Clear,0,2012-10-22 04:30:00
11:50 PM,44.6,35.6,71,29.92,10.0,NNE,4.6,-,N/A,,Clear,30,2012-10-22 04:50:00